EW7906 Weather Reports


time (UTC)temp
C
wind
direction
speed
KPH
gust
KPH
rain 1hr
cm
rain 24hr
cm
rain mn
cm
humidity
%
barometer
mb
20260503194453 37 209 6.4 16.1 0.00 0.00 0.00 100 1020.0
20260503194224 36 164 8.0 14.5 0.00 0.00 0.00 100 1019.9
20260503193453 36 151 9.7 16.1 0.00 0.00 0.00 100 1020.0
20260503192953 36 139 6.4 16.1 0.00 0.00 0.00 100 1020.0
20260503192452 36 106 1.6 14.5 0.00 0.00 0.00 100 1020.1
20260503192222 36 133 8.0 14.5 0.00 0.00 0.00 100 1020.1
20260503191451 36 127 0.0 17.7 0.00 0.00 0.00 100 1020.2
20260503190947 36 150 9.7 17.7 0.00 0.00 0.00 100 1020.3
20260503190446 37 180 0.0 12.9 0.00 0.00 0.00 100 1020.3
20260503190215 36 164 8.0 17.7 0.00 0.00 0.00 100 1020.5
20260503185443 36 171 4.8 17.7 0.00 0.00 0.00 100 1020.6
20260503185215 36 158 8.0 14.5 0.00 0.00 0.00 100 1020.6
20260503184443 36 156 6.4 16.1 0.00 0.00 0.00 100 1020.7
20260503183942 36 127 0.0 16.1 0.00 0.00 0.00 100 1020.8
20260503183444 36 167 6.4 16.1 0.00 0.00 0.00 100 1020.9
20260503182942 35 164 11.3 16.1 0.00 0.00 0.00 100 1021.1
20260503182443 36 140 1.6 14.5 0.00 0.00 0.00 100 1021.2
20260503181943 36 143 8.0 14.5 0.00 0.00 0.00 100 1021.1
20260503181443 36 119 4.8 17.7 0.00 0.00 0.00 100 1021.2
20260503180943 36 94 6.4 17.7 0.00 0.00 0.00 100 1021.4
20260503180443 36 135 4.8 14.5 0.00 0.00 0.00 100 1021.7
20260503180212 36 196 6.4 16.1 0.00 0.00 0.00 100 1021.8
20260503175439 36 143 8.0 16.1 0.00 0.00 0.00 100 1021.8
20260503174923 36 195 1.6 12.9 0.00 0.00 0.00 100 1021.9
20260503174416 36 139 1.6 19.3 0.00 0.00 0.00 100 1022.0
20260503174144 36 150 6.4 19.3 0.00 0.00 0.00 100 1022.1
20260503173407 36 178 4.8 12.9 0.00 0.00 0.00 100 1022.0
20260503173116 36 150 6.4 16.1 0.00 0.00 0.00 100 1022.1
20260503172345 36 111 0.0 16.1 0.00 0.00 0.00 100 1022.1
20260503171839 36 150 8.0 14.5 0.00 0.00 0.00 100 1022.2
20260503171339 36 143 3.2 14.5 0.00 0.00 0.00 100 1022.2
20260503170840 36 132 3.2 16.1 0.00 0.00 0.00 100 1022.4
20260503170609 36 208 8.0 19.3 0.00 0.00 0.00 100 1022.5
20260503150739 34 202 0.0 0.0 0.00 0.00 0.00 100 1023.1
20260503150501 33 202 0.0 3.2 0.00 0.00 0.00 100 1023.1
20260503140129 30 191 0.0 6.4 0.00 0.00 0.00 100 1022.7
20260503131044 28 244 1.6 4.8 0.00 0.00 0.00 100 1022.4
20260503130539 28 49 0.0 0.0 0.00 0.00 0.00 100 1022.4
20260503120129 26 49 0.0 0.0 0.00 0.00 0.00 100 1021.9
20260503110811 26 49 0.0 0.0 0.00 0.00 0.00 100 1021.5
20260503110307 26 49 0.0 0.0 0.00 0.00 0.00 100 1021.4
20260503100106 26 49 0.0 0.0 0.00 0.00 0.00 100 1020.7
20260503080906 27 49 0.0 0.0 0.00 0.00 0.00 29 1020.7
20260503080345 27 49 0.0 0.0 0.00 0.00 0.00 26 1020.7
20260503072802 27 49 0.0 0.0 0.00 0.00 0.00 9 1020.8
20260503072254 27 49 0.0 0.0 0.00 0.00 0.00 8 1020.9
20260503071745 27 49 0.0 0.0 0.00 0.00 0.00 7 1020.9
20260503071229 27 49 0.0 0.0 0.00 0.00 0.00 6 1020.9
20260503070952 27 49 0.0 0.0 0.00 0.00 0.00 6 1020.9
20260503070450 27 49 0.0 0.0 0.00 0.00 0.00 5 1021.1
20260503060228 27 49 0.0 0.0 0.00 0.00 0.00 1 1021.2
20260503054945 27 49 0.0 0.0 0.00 0.00 0.00 1 1021.2
20260503054444 27 49 0.0 0.0 0.00 0.00 0.00 100 1021.2
20260503053936 27 49 0.0 0.0 0.00 0.00 0.00 100 1021.2
20260503053420 27 49 0.0 0.0 0.00 0.00 0.00 100 1021.4
20260503052900 27 49 0.0 0.0 0.00 0.00 0.00 100 1021.4
20260503052334 27 49 0.0 0.0 0.00 0.00 0.00 100 1021.4
20260503051811 27 49 0.0 0.0 0.00 0.00 0.00 100 1021.4
20260503051312 27 49 0.0 0.0 0.00 0.00 0.00 100 1021.5
20260503050808 27 49 0.0 0.0 0.00 0.00 0.00 100 1021.4
20260503050539 27 49 0.0 0.0 0.00 0.00 0.00 100 1021.4
20260503045808 27 49 0.0 0.0 0.00 0.00 0.00 100 1021.4
20260503045252 27 49 0.0 0.0 0.00 0.00 0.00 100 1021.2
20260503044959 27 49 0.0 0.0 0.00 0.00 0.00 100 1021.2
20260503044210 28 49 0.0 0.0 0.00 0.00 0.00 100 1021.4
20260503043705 28 49 0.0 0.0 0.00 0.00 0.00 100 1021.4
20260503043157 28 49 0.0 0.0 0.00 0.00 0.00 100 1021.2
20260503042652 28 49 0.0 0.0 0.00 0.00 0.00 100 1021.2
20260503042421 28 49 0.0 0.0 0.00 0.00 0.00 100 1021.2
20260503041638 28 49 0.0 0.0 0.00 0.00 0.00 100 1021.2
20260503041136 28 49 0.0 0.0 0.00 0.00 0.00 100 1020.9
20260503040616 28 49 0.0 0.0 0.00 0.00 0.00 100 1020.9
20260503040323 28 49 0.0 0.0 0.00 0.00 0.00 100 1020.9
20260503035547 28 49 0.0 0.0 0.00 0.00 0.00 100 1021.1
20260503035042 28 49 0.0 0.0 0.00 0.00 0.00 100 1021.1
20260503034532 28 49 0.0 0.0 0.00 0.00 0.00 100 1021.1
20260503034033 28 49 0.0 0.0 0.00 0.00 0.00 100 1020.9
20260503033522 28 49 0.0 0.0 0.00 0.00 0.00 100 1020.8
20260503033013 28 49 0.0 0.0 0.00 0.00 0.00 100 1020.8
20260503032721 28 49 0.0 0.0 0.00 0.00 0.00 100 1020.7
20260503031935 28 49 0.0 0.0 0.00 0.00 0.00 100 1020.7
20260503031930 28 49 0.0 0.0 0.00 0.00 0.00 100 1020.7
20260503030929 29 49 0.0 0.0 0.00 0.00 0.00 100 1020.6
20260503030406 29 49 0.0 0.0 0.00 0.00 0.00 100 1020.6
20260503025857 29 49 0.0 0.0 0.00 0.00 0.00 100 1020.5
20260503025357 29 49 0.0 0.0 0.00 0.00 0.00 100 1020.6
20260503024849 29 49 0.0 0.0 0.00 0.00 0.00 100 1020.6
20260503024316 29 49 0.0 0.0 0.00 0.00 0.00 100 1020.6
20260503023803 29 49 0.0 0.0 0.00 0.00 0.00 100 1020.4
20260503023759 29 49 0.0 0.0 0.00 0.00 0.00 100 1020.3
20260503022743 29 49 0.0 0.0 0.00 0.00 0.00 100 1020.2
20260503022242 30 49 0.0 0.0 0.00 0.00 0.00 100 1020.1
20260503021743 30 49 0.0 0.0 0.00 0.00 0.00 100 1020.1
20260503021225 30 49 0.0 0.0 0.00 0.00 0.00 100 1020.0
20260503020722 30 49 0.0 0.0 0.00 0.00 0.00 100 1019.9
20260503020212 30 49 0.0 0.0 0.00 0.00 0.00 100 1019.9
20260503015943 30 49 0.0 0.0 0.00 0.00 0.00 100 1019.9
20260503015203 30 49 0.0 0.0 0.00 0.00 0.00 100 1019.9
20260503014641 31 49 0.0 0.0 0.00 0.00 0.00 100 1019.9
20260503014141 31 49 0.0 0.0 0.00 0.00 0.00 100 1019.9
20260503013628 31 49 0.0 0.0 0.00 0.00 0.00 100 1019.9
20260503013122 31 49 0.0 0.0 0.00 0.00 0.00 100 1019.9
20260503012621 31 49 0.0 0.0 0.00 0.00 0.00 100 1019.8
20260503012102 31 49 0.0 0.0 0.00 0.00 0.00 100 1019.7
20260503011601 31 49 0.0 0.0 0.00 0.00 0.00 100 1019.6
20260503011039 32 49 0.0 0.0 0.00 0.00 0.00 100 1019.6
20260503010529 32 49 0.0 0.0 0.00 0.00 0.00 100 1019.5
20260503010025 32 49 0.0 0.0 0.00 0.00 0.00 100 1019.5
20260503005513 32 49 0.0 0.0 0.00 0.00 0.00 100 1019.6
20260503004958 32 49 0.0 0.0 0.00 0.00 0.00 100 1019.5
20260503004459 32 49 0.0 0.0 0.00 0.00 0.00 100 1019.5
20260503004227 33 49 0.0 0.0 0.00 0.00 0.00 100 1019.4
20260503003437 33 49 0.0 0.0 0.00 0.00 0.00 100 1019.4
20260503002911 33 49 0.0 8.0 0.00 0.00 0.00 100 1019.4
20260503002346 33 49 0.0 8.0 0.00 0.00 0.00 100 1019.3
20260503001825 33 59 0.0 9.7 0.00 0.00 0.00 100 1019.3
20260503001309 33 59 0.0 9.7 0.00 0.00 0.00 100 1019.3
20260503000809 33 46 1.6 8.0 0.00 0.00 0.00 100 1019.3
20260503000311 33 22 0.0 6.4 0.00 0.00 0.00 100 1019.3
20260502235809 33 274 0.0 3.2 0.00 0.00 0.00 100 1019.2
20260502235258 33 274 0.0 8.0 0.00 0.03 0.00 100 1019.2
20260502234742 34 274 0.0 8.0 0.00 0.03 0.00 100 1019.3
20260502234243 34 120 3.2 11.3 0.00 0.03 0.00 100 1019.3
20260502234010 34 2 3.2 11.3 0.00 0.03 0.00 100 1019.2
20260502233239 34 326 0.0 8.0 0.00 0.03 0.00 100 1019.2
20260502232740 34 319 1.6 8.0 0.00 0.03 0.00 100 1019.2
20260502232234 34 354 0.0 9.7 0.00 0.03 0.00 100 1019.2
20260502231731 34 354 4.8 9.7 0.00 0.03 0.00 100 1019.2
20260502231229 34 32 0.0 16.1 0.00 0.03 0.00 100 1019.1
20260502230717 34 16 0.0 16.1 0.00 0.03 0.00 100 1019.2
20260502230216 34 347 1.6 14.5 0.00 0.03 0.00 100 1019.1
20260502225715 34 358 3.2 14.5 0.00 0.03 0.00 100 1019.2
20260502225212 34 130 1.6 8.0 0.00 0.03 0.00 100 1019.2
20260502224943 34 281 1.6 14.5 0.00 0.03 0.00 100 1019.1
20260502224441 34 97 6.4 14.5 0.00 0.03 0.00 100 1019.2
20260502223943 34 19 0.0 14.5 0.00 0.03 0.00 100 1019.2
20260502223157 34 19 0.0 14.5 0.00 0.03 0.00 100 1019.2
20260502222656 34 49 0.0 19.3 0.00 0.05 0.00 100 1019.3
20260502222157 34 315 8.0 19.3 0.00 0.05 0.00 100 1019.3
20260502221657 34 358 1.6 14.5 0.00 0.05 0.00 100 1019.4
20260502221158 34 337 0.0 12.9 0.00 0.05 0.00 100 1019.3
20260502220624 35 59 3.2 16.1 0.00 0.05 0.00 100 1019.4
20260502220115 35 358 3.2 14.5 0.00 0.08 0.00 100 1019.4
20260502215616 34 53 8.0 12.9 0.00 0.08 0.00 100 1019.4
20260502215115 35 47 1.6 16.1 0.00 0.10 0.00 100 1019.4
20260502214601 34 81 3.2 17.7 0.00 0.13 0.00 100 1019.5
20260502214059 35 59 8.0 17.7 0.00 0.15 0.00 100 1019.5
20260502213559 35 43 0.0 14.5 0.00 0.18 0.00 100 1019.5
20260502213053 35 347 0.0 14.5 0.00 0.23 0.00 100 1019.6
20260502212543 35 298 3.2 16.1 0.00 0.25 0.00 100 1019.7
20260502212043 35 21 3.2 16.1 0.00 0.28 0.00 100 1019.8
20260502211542 35 52 4.8 16.1 0.00 0.30 0.00 100 1019.8
20260502211042 35 66 1.6 14.5 0.00 0.30 0.00 100 1019.8
20260502210813 35 54 6.4 11.3 0.00 0.30 0.00 100 1019.9
20260502210042 35 94 0.0 17.7 0.00 0.30 0.00 100 1020.0
20260502205541 36 81 4.8 17.7 0.00 0.30 0.00 100 1020.2
20260502205042 36 334 4.8 16.1 0.00 0.30 0.00 100 1020.3
20260502204542 36 88 6.4 12.9 0.00 0.30 0.00 100 1020.4
20260502204040 35 319 6.4 12.9 0.00 0.30 0.00 100 1020.3
20260502203540 35 53 4.8 17.7 0.00 0.30 0.00 100 1020.4
20260502203039 35 358 6.4 20.9 0.00 0.30 0.00 100 1020.4
20260502202539 35 322 9.7 20.9 0.00 0.30 0.00 100 1020.5
20260502202040 35 23 8.0 16.1 0.00 0.30 0.00 100 1020.6
20260502201540 36 351 4.8 12.9 0.00 0.30 0.00 100 1020.6
20260502201311 35 68 6.4 12.9 0.00 0.30 0.00 100 1020.7
20260502200540 35 7 6.4 14.5 0.00 0.30 0.00 100 1020.7
20260502200040 35 14 0.0 14.5 0.00 0.33 0.00 100 1020.7
20260502195538 35 12 6.4 16.1 0.00 0.33 0.00 100 1020.7